Showing default

COSMOS 2166, 21780

Orbit data source: Space-Track

COSMOS 2166, 21780 is a payload satellite owned by UNKS RF (CIS) in LEO that was launched on Tue, 12 Nov 1991 UTC via a TSIKLON-3 launch vehicle from the Plesetsk Missile And Space Complex (PKMTR). Payload-class satellites include a variety of spacecraft equipped with specific instruments for various scientific and technological missions. These include communications satellites like Starlink; space stations such as the ISS; scientific satellites like the Hubble; Earth observation satellites from companies like Planet Labs, Umbra, and HawkEye 360; GPS; miniature CubeSats for education and research; and military/defense satellites.

Loading next visibility...
Identifier
21780, 1991-077B
Orbit
LEO
Country
Flag of CISCIS
Related business
Manufacturer
NPO PM
Mission
Defense Communications
Bus & Motor
STRELA-3, Unknown motor
Mass
225 kg wet, 225 kg dry
Launch date (UTC)
1991-11-12 (34 years ago)
Launch vehicle
TSIKLON-3
Launch site
Plesetsk Missile And Space Complex (PKMTR)
Object type
Payload
Rocket body
Debris
Shape & HBR
Cyl, 0.8 m
Radar Cross Section
1.257 m², Large (>1 m²)

Expand to show TLE details & history
Last TLE update: 13 hours ago

TLE from 13 hours ago
0 COSMOS 2166
1 21780U 91077B   25310.70363924  .00000043  00000-0  17677-3 0  9995
2 21780  82.6034  28.1784 0002336 313.6387 214.7368 12.63441210567078
Epoch: 2025-11-06T16:53Z
TLE epoch observation values (Epoch: 2025-11-06T16:53:14.430Z)
Latitude
11.49879°
Longitude
-92.79568°
Altitude
1,412.25 km
Speed
7.154 km/s
True Right ascension
13h 46m 41s
True Declination
11° 26' 15"
Sunlit
Object was in daylight at epoch
Visualization orbit readout
Latitude
Unknown
Longitude
Unknown
Altitude
Unknown
Speed
Unknown
Apparent Right ascension
Unknown
Apparent Declination
Unknown
Sunlit
N/A
Visualization observer readout
Local Sidereal Time
01:54:37
Azimuth
Unknown
Elevation
Unknown
Doppler factor
Unknown
Orbital elements
Apogee altitude
1,407.909 km
Perigee altitude
1,404.273 km
Semi-major axis
7,784.228 km
Eccentricity
0.00023
Inclination
82.6034°
RAAN
28.1784°
Arg. of periapsis
313.6387°
True anomaly
214.72155°
Mean anomaly
214.7368°
Eccentric anomaly
214.72917°
Mean motion
3.16024 °/min
Orbital period
113.92 mins
BSTAR
0.00017677
Loading maneuver chart data...
Computing Atmospheric mass density...
Loading historical data...
Loading historical data...
Loading historical data...
Loading historical data...
Loading historical data...
Loading historical data...
Loading historical data...

Documentation

Showing up to 5 results
|